Total_Precipitation_Accumulation
0.13 0.09 0.02 0.01 0.00 0.00 0.00 0.00 0.00 0.00 0.00 0.00 0.00 0.00 0.00 0.00 0.00 0.00 0.03 0.02 0.02 0.03 0.04 0.04 0.04 0.02 0.00 0.00 0.02 0.08 0.13 0.14 0.20 0.29 0.26 0.24 0.22 0.15 0.08 0.04 0.03 0.02 0.00
0.13 0.14 0.06 0.02 0.01 0.00 0.01 0.00 0.00 0.00 0.00 0.00 0.00 0.00 0.00 0.00 0.00 0.00 0.02 0.04 0.02 0.02 0.03 0.04 0.04 0.04 0.03 0.02 0.04 0.10 0.15 0.16 0.17 0.23 0.29 0.33 0.35 0.26 0.20 0.14 0.11 0.08 0.06
0.16 0.17 0.10 0.05 0.01 0.01 0.00 0.00 0.00 0.00 0.00 0.00 0.00 0.00 0.00 0.00 0.00 0.00 0.00 0.03 0.05 0.02 0.03 0.06 0.08 0.07 0.08 0.07 0.05 0.07 0.11 0.14 0.18 0.23 0.28 0.33 0.35 0.37 0.34 0.26 0.22 0.24 0.26
0.18 0.22 0.15 0.09 0.07 0.03 0.02 0.01 0.00 0.00 0.00 0.00 0.01 0.00 0.00 0.00 0.00 0.00 0.00 0.01 0.04 0.05 0.06 0.07 0.11 0.13 0.13 0.11 0.07 0.06 0.09 0.12 0.15 0.19 0.21 0.19 0.18 0.22 0.24 0.27 0.31 0.37 0.41
0.21 0.28 0.28 0.23 0.20 0.15 0.09 0.05 0.01 0.01 0.01 0.01 0.01 0.01 0.01 0.00 0.00 0.00 0.00 0.00 0.01 0.01 0.05 0.05 0.05 0.08 0.13 0.17 0.11 0.07 0.07 0.09 0.10 0.10 0.09 0.07 0.08 0.11 0.15 0.20 0.26 0.30 0.33
0.39 0.44 0.51 0.49 0.41 0.31 0.25 0.18 0.12 0.07 0.03 0.02 0.00 0.00 0.01 0.00 0.00 0.00 0.00 0.00 0.01 0.00 0.00 0.01 0.03 0.03 0.05 0.13 0.17 0.08 0.06 0.06 0.05 0.06 0.05 0.05 0.05 0.06 0.09 0.12 0.16 0.19 0.21
0.56 0.65 0.76 0.82 0.78 0.60 0.52 0.46 0.37 0.31 0.17 0.04 0.04 0.04 0.02 0.01 0.00 0.00 0.00 0.00 0.00 0.00 0.00 0.00 0.02 0.06 0.09 0.10 0.12 0.08 0.07 0.08 0.07 0.08 0.06 0.05 0.04 0.03 0.04 0.05 0.06 0.08 0.10
0.67 0.68 0.79 0.84 0.81 0.75 0.70 0.60 0.54 0.55 0.39 0.15 0.15 0.22 0.17 0.12 0.04 0.00 0.00 0.00 0.00 0.00 0.00 0.00 0.00 0.02 0.06 0.12 0.05 0.02 0.04 0.06 0.07 0.05 0.04 0.04 0.03 0.02 0.02 0.02 0.02 0.02 0.04
0.93 0.89 0.86 0.91 0.89 0.90 0.83 0.73 0.65 0.65 0.56 0.36 0.25 0.34 0.31 0.25 0.21 0.07 0.01 0.01 0.01 0.00 0.00 0.00 0.01 0.01 0.01 0.03 0.02 0.01 0.02 0.03 0.05 0.04 0.03 0.02 0.02 0.01 0.01 0.01 0.02 0.03 0.04
1.27 1.20 1.15 1.14 1.01 0.90 0.81 0.73 0.65 0.64 0.69 0.61 0.50 0.40 0.33 0.26 0.31 0.25 0.10 0.02 0.02 0.01 0.00 0.00 0.00 0.02 0.02 0.01 0.00 0.00 0.01 0.02 0.04 0.04 0.03 0.03 0.02 0.01 0.01 0.02 0.03 0.03 0.03
1.85 1.74 1.60 1.34 1.11 0.96 0.86 0.83 0.77 0.70 0.67 0.64 0.55 0.46 0.40 0.34 0.24 0.25 0.25 0.15 0.06 0.02 0.01 0.00 0.00 0.00 0.01 0.01 0.00 0.00 0.00 0.01 0.03 0.06 0.05 0.03 0.03 0.03 0.02 0.02 0.02 0.02 0.02
1.75 1.68 1.51 1.23 0.99 0.83 0.78 0.83 0.81 0.76 0.70 0.64 0.54 0.43 0.39 0.34 0.28 0.31 0.29 0.33 0.31 0.11 0.02 0.02 0.01 0.00 0.00 0.00 0.00 0.01 0.01 0.01 0.02 0.05 0.05 0.04 0.04 0.03 0.03 0.02 0.02 0.02 0.02
1.10 1.11 1.05 0.95 0.84 0.74 0.73 0.80 0.84 0.81 0.75 0.67 0.58 0.48 0.45 0.40 0.41 0.40 0.32 0.30 0.32 0.21 0.09 0.04 0.05 0.04 0.02 0.01 0.01 0.02 0.01 0.02 0.03 0.04 0.03 0.03 0.02 0.03 0.04 0.05 0.05 0.03 0.03
0.79 0.80 0.85 0.81 0.76 0.70 0.66 0.67 0.70 0.71 0.68 0.62 0.56 0.52 0.47 0.41 0.43 0.39 0.33 0.32 0.26 0.24 0.19 0.07 0.05 0.07 0.05 0.03 0.02 0.02 0.01 0.05 0.05 0.04 0.04 0.02 0.01 0.01 0.02 0.04 0.07 0.08 0.08
0.48 0.58 0.71 0.77 0.74 0.70 0.67 0.66 0.70 0.67 0.63 0.59 0.53 0.47 0.44 0.42 0.41 0.43 0.46 0.39 0.31 0.25 0.25 0.18 0.12 0.06 0.07 0.05 0.04 0.02 0.01 0.05 0.07 0.06 0.04 0.02 0.01 0.01 0.01 0.02 0.02 0.04 0.04
0.46 0.51 0.52 0.53 0.53 0.57 0.59 0.62 0.69 0.71 0.64 0.59 0.54 0.48 0.44 0.40 0.42 0.43 0.45 0.45 0.38 0.31 0.27 0.23 0.19 0.14 0.15 0.13 0.13 0.07 0.04 0.04 0.06 0.06 0.04 0.03 0.01 0.01 0.00 0.01 0.01 0.01 0.01
0.29 0.34 0.32 0.31 0.38 0.44 0.41 0.45 0.50 0.57 0.61 0.60 0.55 0.48 0.43 0.39 0.40 0.38 0.39 0.41 0.39 0.36 0.25 0.24 0.19 0.16 0.21 0.22 0.23 0.16 0.11 0.07 0.07 0.05 0.04 0.03 0.03 0.03 0.02 0.01 0.00 0.01 0.01
0.15 0.21 0.22 0.21 0.27 0.38 0.39 0.44 0.46 0.44 0.45 0.47 0.46 0.46 0.44 0.41 0.39 0.33 0.31 0.31 0.33 0.33 0.27 0.22 0.19 0.16 0.18 0.23 0.26 0.25 0.21 0.17 0.15 0.16 0.14 0.08 0.05 0.04 0.03 0.02 0.01 0.00 0.00
0.12 0.15 0.17 0.19 0.23 0.31 0.39 0.41 0.43 0.36 0.33 0.31 0.30 0.32 0.35 0.35 0.35 0.31 0.28 0.28 0.28 0.27 0.29 0.22 0.20 0.19 0.17 0.16 0.20 0.20 0.22 0.25 0.24 0.26 0.31 0.22 0.14 0.11 0.10 0.07 0.05 0.03 0.03
0.13 0.12 0.11 0.14 0.22 0.33 0.40 0.43 0.43 0.35 0.29 0.26 0.27 0.27 0.27 0.25 0.24 0.26 0.27 0.32 0.33 0.36 0.35 0.28 0.26 0.25 0.23 0.20 0.18 0.22 0.28 0.31 0.32 0.29 0.31 0.34 0.31 0.24 0.20 0.18 0.18 0.15 0.13
0.11 0.08 0.05 0.07 0.15 0.21 0.25 0.37 0.38 0.31 0.29 0.25 0.26 0.30 0.29 0.23 0.19 0.18 0.15 0.18 0.21 0.30 0.34 0.34 0.33 0.33 0.31 0.24 0.21 0.25 0.28 0.36 0.36 0.34 0.33 0.33 0.35 0.30 0.29 0.26 0.24 0.24 0.23
0.09 0.07 0.05 0.05 0.07 0.08 0.13 0.19 0.26 0.32 0.35 0.33 0.30 0.33 0.31 0.26 0.25 0.18 0.11 0.09 0.09 0.12 0.18 0.21 0.24 0.29 0.33 0.35 0.35 0.34 0.35 0.36 0.37 0.42 0.38 0.41 0.40 0.36 0.35 0.29 0.28 0.31 0.31
0.03 0.03 0.03 0.04 0.03 0.03 0.03 0.06 0.15 0.29 0.38 0.35 0.30 0.37 0.44 0.40 0.37 0.34 0.28 0.17 0.11 0.07 0.06 0.09 0.15 0.22 0.25 0.27 0.30 0.34 0.36 0.39 0.38 0.40 0.31 0.29 0.29 0.27 0.29 0.28 0.25 0.26 0.30
0.02 0.02 0.04 0.06 0.03 0.01 0.01 0.01 0.06 0.18 0.27 0.29 0.28 0.34 0.50 0.53 0.51 0.46 0.43 0.44 0.31 0.19 0.11 0.06 0.10 0.14 0.13 0.17 0.22 0.27 0.26 0.20 0.17 0.14 0.12 0.14 0.17 0.17 0.18 0.17 0.16 0.14 0.16
0.02 0.02 0.02 0.04 0.03 0.02 0.02 0.01 0.03 0.10 0.17 0.19 0.21 0.29 0.39 0.49 0.52 0.51 0.41 0.39 0.35 0.26 0.21 0.16 0.09 0.07 0.05 0.05 0.10 0.18 0.23 0.22 0.17 0.15 0.11 0.08 0.09 0.10 0.09 0.10 0.09 0.08 0.07
0.01 0.01 0.00 0.00 0.00 0.00 0.01 0.01 0.01 0.01 0.03 0.04 0.08 0.16 0.28 0.31 0.33 0.36 0.33 0.41 0.46 0.29 0.22 0.23 0.19 0.14 0.12 0.13 0.19 0.23 0.27 0.29 0.27 0.28 0.26 0.21 0.19 0.16 0.16 0.13 0.07 0.05 0.05